This demonstration page uses our WeatherBlox Daily Observations layout. Learn more.

Left ArrowRight Arrow

41.12389, -100.76542

Hourly Observations for September 25, 2020

Temp ( °F °C ) Dew Point ( °F °C ) Humidity (%) Winds ( mph kmh ) Pressure ( in mb ) Visibility ( mi km ) Precip ( " mm )
12:53 am 00:53 Clear 58 14.4 50 10 75 75 E 5 7 29.72 1007 10 16 0.00 0.00
1:53 am 01:53 Clear 57 13.9 49 9.4 74 74 Calm 29.72 1006 10 16 0.00 0.00
2:53 am 02:53 Clear 60 15.6 49 9.4 67 67 ENE 3 6 29.72 1006 10 16 0.00 0.00
3:53 am 03:53 Clear 54 12.2 46 7.8 75 75 NW 3 6 29.72 1006 10 16 0.00 0.00
4:53 am 04:53 Mostly Clear 52 11.1 45 7.2 77 77 WNW 5 7 29.72 1007 10 16 0.00 0.00
5:53 am 05:53 Clear 54 12.2 45 7.2 72 72 SW 3 6 29.72 1006 10 16 0.00 0.00
6:53 am 06:53 Clear 51 10.6 44 6.7 77 77 SW 5 7 29.75 1007 10 16 0.00 0.00
7:53 am 07:53 Sunny 48 8.9 43 6.1 83 83 NW 5 7 29.80 1009 10 16 0.00 0.00
8:53 am 08:53 Sunny 55 12.8 46 7.8 72 72 Calm 29.81 1010 10 16 0.00 0.00
9:53 am 09:53 Sunny 69 20.6 47 8.3 45 45 VRB 7 11 29.82 1010 10 16 0.00 0.00
10:53 am 10:53 Sunny 75 23.9 47 8.3 37 37 N 17 28 29.82 1010 10 16 0.00 0.00
11:53 am 11:53 Sunny 79 26.1 47 8.3 32 32 NNE 12 19 29.82 1010 10 16 0.00 0.00
12:53 pm 12:53 Sunny 81 27.2 47 8.3 30 30 N 14 22 29.79 1009 10 16 0.00 0.00
1:53 pm 13:53 Sunny 84 28.9 47 8.3 27 27 NE 12 19 29.78 1009 10 16 0.00 0.00
2:53 pm 14:53 Sunny 85 29.4 46 7.8 26 26 NE 9 15 29.75 1007 10 16 0.00 0.00
3:53 pm 15:53 Sunny 87 30.6 46 7.8 24 24 NNE 10 17 29.75 1008 10 16 0.00 0.00
4:53 pm 16:53 Sunny 85 29.4 44 6.7 24 24 Calm 29.76 1008 10 16 0.00 0.00
5:53 pm 17:53 Sunny 84 28.9 48 8.9 29 29 SE 5 7 29.76 1008 10 16 0.00 0.00
6:53 pm 18:53 Sunny 78 25.6 47 8.3 33 33 ENE 7 11 29.77 1008 10 16 0.00 0.00
7:53 pm 19:53 Clear 66 18.9 46 7.8 49 49 E 7 11 29.78 1009 10 16 0.00 0.00
8:53 pm 20:53 Clear 62 16.7 47 8.3 58 58 Calm 29.78 1009 10 16 0.00 0.00
9:53 pm 21:53 Clear 58 14.4 46 7.8 65 65 ENE 8 13 29.76 1008 10 16 0.00 0.00
10:53 pm 22:53 Clear 55 12.8 46 7.8 72 72 E 5 7 29.75 1007 10 16 0.00 0.00
11:53 pm 23:53 Clear 54 12.2 46 7.8 75 75 E 3 6 29.73 1007 10 16 0.00 0.00

Powered by AerisWeather